contact:dominique.lefevre@mio.osupytheas.fr, maurice.libes@osupytheas.fr, didier.mallarino@osupytheas.fr
Project:EMSO http://www.emso-fr.org/EMSO-France
Depth: 2436.0 m
Title:EMSO Ligure Ouest : Data MII capteur AQUADOPP
Date,Latitude,Longitude,X_East,Y_North,Z_Up,Amplitude_X,Amplitude_Y,Amplitude_Z,Batterie,SoundSpeed,Heading,Pitch,Roll,Pressure,TIS,Speed,Direction
, degrees North, degrees East, m.s-1, m.s-1,m.s-1, 1, 1, 1, Volt, m.s-1, degree, degree, degree, dbar, degree_C, m.s-1, degree
2020-09-06T00:04:03,42.805,6.029,0.034,-0.022,0.034,101.0,104.0,99.0,13.4,1505.3,324.6,-0.7,1.8,2470.433,13.31,0.04,122.9
2020-09-06T00:07:03,42.805,6.029,0.029,-0.039,0.007,102.0,104.0,99.0,13.4,1505.3,324.2,-0.7,1.8,2470.406,13.32,0.048,143.4
2020-09-06T00:10:03,42.805,6.029,0.01,-0.014,0.049,102.0,103.0,100.0,13.4,1505.3,324.3,-0.7,1.9,2470.406,13.32,0.017,144.5
2020-09-06T00:13:03,42.805,6.029,-0.008,-0.033,-0.021,103.0,104.0,101.0,13.3,1505.3,326.8,-0.7,1.8,2470.362,13.33,0.033,193.6
2020-09-06T00:16:03,42.805,6.029,-0.019,-0.025,-0.022,102.0,103.0,101.0,13.3,1505.3,327.9,-0.7,1.8,2470.352,13.33,0.031,217.2
2020-09-06T00:19:03,42.805,6.029,-0.032,-0.014,-0.024,101.0,103.0,102.0,13.3,1505.3,326.7,-0.7,1.8,2470.373,13.33,0.034,246.4
2020-09-06T00:22:02,42.805,6.029,-0.029,-0.015,-0.015,102.0,105.0,100.0,13.3,1505.3,327.7,-0.7,1.8,2470.421,13.33,0.032,242.6
2020-09-06T00:25:03,42.805,6.029,0.037,-0.032,0.041,101.0,106.0,100.0,13.4,1505.3,326.5,-0.7,1.8,2470.412,13.33,0.048,130.9
2020-09-06T00:28:03,42.805,6.029,0.013,-0.025,0.029,101.0,106.0,99.0,13.4,1505.3,328.2,-0.7,1.8,2470.371,13.33,0.028,152.5
2020-09-06T00:31:03,42.805,6.029,0.023,-0.005,0.033,102.0,106.0,100.0,13.3,1505.3,327.5,-0.7,1.8,2470.371,13.33,0.023,102.3
2020-09-06T00:34:03,42.805,6.029,0.031,-0.03,0.033,102.0,110.0,100.0,13.3,1505.3,327.6,-0.7,1.8,2470.392,13.33,0.043,134.1
2020-09-06T00:37:03,42.805,6.029,0.049,-0.017,0.031,102.0,104.0,102.0,13.4,1505.3,327.8,-0.7,1.8,2470.351,13.33,0.051,109.1
2020-09-06T00:40:03,42.805,6.029,0.053,-0.002,0.055,102.0,104.0,100.0,13.4,1505.3,324.1,-0.7,1.8,2470.345,13.33,0.053,92.2
2020-09-06T00:43:03,42.805,6.029,-0.024,-0.011,-0.008,101.0,104.0,101.0,13.4,1505.3,325.4,-0.7,1.8,2470.382,13.33,0.026,245.4
2020-09-06T00:46:03,42.805,6.029,0.035,-0.033,0.027,104.0,107.0,99.0,13.4,1505.3,327.7,-0.7,1.8,2470.339,13.33,0.048,133.3
2020-09-06T00:49:03,42.805,6.029,0.043,-0.027,0.045,102.0,104.0,100.0,13.4,1505.3,327.1,-0.7,1.9,2470.396,13.33,0.05,122.1
2020-09-06T00:52:03,42.805,6.029,0.025,-0.026,0.05,102.0,105.0,100.0,13.3,1505.3,326.6,-0.7,1.8,2470.343,13.33,0.036,136.1
2020-09-06T00:55:03,42.805,6.029,-0.003,-0.011,0.032,102.0,105.0,104.0,13.4,1505.3,323.4,-0.7,1.8,2470.37,13.33,0.011,195.3
2020-09-06T00:58:03,42.805,6.029,0.033,-0.009,0.051,103.0,103.0,100.0,13.4,1505.3,326.8,-0.7,1.8,2470.365,13.33,0.034,105.3
2020-09-06T01:04:03,42.805,6.029,0.0,-0.025,0.015,102.0,107.0,100.0,13.4,1505.3,326.4,-0.7,1.8,2470.435,13.31,0.025,180.0
2020-09-06T01:07:03,42.805,6.029,0.009,-0.034,-0.015,100.0,105.0,101.0,13.4,1505.3,323.0,-0.7,1.8,2470.385,13.32,0.035,165.2
2020-09-06T01:10:03,42.805,6.029,0.003,-0.033,-0.017,104.0,105.0,100.0,13.4,1505.3,328.5,-0.7,1.8,2470.382,13.33,0.033,174.8
2020-09-06T01:13:03,42.805,6.029,-0.044,-0.023,-0.021,100.0,107.0,101.0,13.4,1505.3,327.0,-0.7,1.9,2470.401,13.33,0.049,242.4
2020-09-06T01:16:03,42.805,6.029,-0.011,-0.015,-0.013,102.0,105.0,102.0,13.4,1505.3,323.2,-0.7,1.8,2470.353,13.33,0.018,216.3
2020-09-06T01:19:03,42.805,6.029,0.0,-0.016,-0.01,101.0,107.0,101.0,13.3,1505.3,327.6,-0.7,1.8,2470.354,13.33,0.016,180.0
2020-09-06T01:22:03,42.805,6.029,-0.012,-0.029,-0.006,104.0,105.0,100.0,13.4,1505.3,326.0,-0.7,1.8,2470.383,13.33,0.031,202.5
2020-09-06T01:25:03,42.805,6.029,-0.015,-0.047,-0.009,103.0,104.0,100.0,13.3,1505.3,323.3,-0.7,1.8,2470.379,13.33,0.049,197.7
2020-09-06T01:28:03,42.805,6.029,-0.011,-0.034,-0.055,102.0,105.0,101.0,13.4,1505.3,326.0,-0.7,1.8,2470.349,13.33,0.035,197.9
2020-09-06T01:31:03,42.805,6.029,-0.003,-0.032,0.0,102.0,105.0,101.0,13.4,1505.3,325.4,-0.7,1.8,2470.346,13.33,0.032,185.4
2020-09-06T01:34:03,42.805,6.029,0.01,-0.021,-0.001,104.0,105.0,101.0,13.3,1505.3,323.2,-0.7,1.8,2470.288,13.33,0.023,154.5
2020-09-06T01:37:03,42.805,6.029,-0.003,-0.014,-0.006,102.0,105.0,101.0,13.4,1505.3,327.3,-0.7,1.8,2470.297,13.33,0.014,192.1
2020-09-06T01:40:03,42.805,6.029,0.004,-0.054,-0.034,101.0,106.0,100.0,13.3,1505.3,322.8,-0.6,1.8,2470.336,13.33,0.054,175.8
2020-09-06T01:43:03,42.805,6.029,-0.036,-0.003,-0.015,101.0,105.0,100.0,13.3,1505.3,324.3,-0.7,1.8,2470.368,13.33,0.036,265.2
2020-09-06T01:46:03,42.805,6.029,-0.009,-0.015,0.006,102.0,104.0,101.0,13.4,1505.3,326.0,-0.7,1.8,2470.352,13.33,0.017,211.0
2020-09-06T01:49:03,42.805,6.029,-0.009,-0.024,-0.03,103.0,107.0,100.0,13.4,1505.3,324.7,-0.7,1.8,2470.291,13.33,0.025,200.6
2020-09-06T01:52:03,42.805,6.029,-0.003,-0.013,-0.032,102.0,105.0,100.0,13.4,1505.3,326.4,-0.7,1.8,2470.316,13.33,0.013,193.0
2020-09-06T01:55:03,42.805,6.029,0.006,-0.008,0.0,106.0,104.0,100.0,13.4,1505.3,327.2,-0.7,1.8,2470.283,13.33,0.01,143.1
2020-09-06T01:58:03,42.805,6.029,0.005,-0.035,-0.02,105.0,106.0,102.0,13.4,1505.3,327.7,-0.7,1.8,2470.335,13.33,0.035,171.9
2020-09-06T02:04:02,42.805,6.029,0.004,-0.02,0.004,102.0,107.0,100.0,13.4,1505.3,325.7,-0.7,1.8,2470.306,13.31,0.02,168.7
2020-09-06T02:07:03,42.805,6.029,-0.008,-0.024,0.008,103.0,105.0,101.0,13.4,1505.3,324.6,-0.7,1.8,2470.354,13.32,0.025,198.4
2020-09-06T02:10:03,42.805,6.029,0.016,-0.034,0.042,102.0,106.0,101.0,13.3,1505.3,325.9,-0.7,1.8,2470.359,13.33,0.037,154.8
2020-09-06T02:13:03,42.805,6.029,-0.001,-0.009,0.017,103.0,105.0,101.0,13.3,1505.3,327.6,-0.7,1.8,2470.345,13.33,0.009,186.3
2020-09-06T02:16:03,42.805,6.029,-0.037,-0.01,-0.001,102.0,105.0,101.0,13.4,1505.3,323.0,-0.7,1.8,2470.368,13.33,0.038,254.9
2020-09-06T02:19:03,42.805,6.029,0.001,-0.028,-0.006,101.0,105.0,100.0,13.4,1505.3,326.2,-0.7,1.8,2470.306,13.33,0.028,178.0
2020-09-06T02:22:03,42.805,6.029,0.032,-0.015,0.056,101.0,106.0,100.0,13.4,1505.3,324.4,-0.7,1.8,2470.32,13.33,0.035,115.1
2020-09-06T02:25:03,42.805,6.029,0.047,-0.03,0.065,102.0,105.0,99.0,13.3,1505.3,327.7,-0.7,1.8,2470.334,13.33,0.055,122.6
2020-09-06T02:28:03,42.805,6.029,0.028,-0.012,0.04,100.0,106.0,100.0,13.4,1505.3,325.7,-0.7,1.8,2470.35,13.33,0.03,113.2
2020-09-06T02:31:03,42.805,6.029,0.032,-0.024,0.035,101.0,104.0,100.0,13.3,1505.3,323.4,-0.7,1.8,2470.298,13.33,0.04,126.9
2020-09-06T02:34:03,42.805,6.029,0.022,-0.009,0.007,101.0,103.0,100.0,13.4,1505.3,323.3,-0.7,1.8,2470.286,13.33,0.023,112.2
2020-09-06T02:37:03,42.805,6.029,0.042,-0.03,0.04,99.0,106.0,102.0,13.4,1505.3,325.7,-0.7,1.8,2470.292,13.33,0.051,125.5
2020-09-06T02:40:03,42.805,6.029,0.029,-0.023,0.034,100.0,106.0,99.0,13.3,1505.3,326.9,-0.7,1.8,2470.336,13.33,0.037,128.4
2020-09-06T02:43:03,42.805,6.029,0.029,-0.022,0.048,101.0,105.0,100.0,13.4,1505.3,325.6,-0.7,1.8,2470.311,13.33,0.036,127.2
2020-09-06T02:46:02,42.805,6.029,0.039,-0.011,0.053,103.0,104.0,100.0,13.4,1505.3,326.7,-0.7,1.8,2470.311,13.33,0.04,105.7
2020-09-06T02:49:03,42.805,6.029,0.037,-0.025,0.012,100.0,106.0,101.0,13.4,1505.3,327.1,-0.7,1.8,2470.299,13.33,0.044,124.0
2020-09-06T02:52:03,42.805,6.029,0.047,-0.017,0.07,102.0,104.0,99.0,13.3,1505.4,323.0,-0.7,1.8,2470.281,13.34,0.049,109.9
2020-09-06T02:55:03,42.805,6.029,0.034,-0.008,0.048,101.0,104.0,99.0,13.4,1505.4,325.8,-0.7,1.8,2470.322,13.34,0.034,103.2
2020-09-06T02:58:03,42.805,6.029,0.023,-0.016,0.059,103.0,104.0,100.0,13.4,1505.4,324.1,-0.7,1.8,2470.312,13.34,0.028,124.8
2020-09-06T03:04:03,42.805,6.029,0.03,-0.012,0.078,101.0,104.0,99.0,13.4,1505.3,324.2,-0.7,1.8,2470.315,13.32,0.032,111.8
2020-09-06T03:07:03,42.805,6.029,0.057,-0.015,0.081,101.0,104.0,98.0,13.3,1505.3,324.8,-0.7,1.8,2470.335,13.32,0.058,104.7
2020-09-06T03:10:03,42.805,6.029,0.044,-0.022,0.044,99.0,104.0,100.0,13.3,1505.3,324.7,-0.7,1.8,2470.281,13.33,0.049,116.6
2020-09-06T03:13:03,42.805,6.029,0.03,-0.018,0.053,101.0,103.0,99.0,13.3,1505.3,327.2,-0.7,1.8,2470.276,13.33,0.034,121.0
2020-09-06T03:16:03,42.805,6.029,0.009,-0.014,0.029,102.0,105.0,101.0,13.4,1505.3,326.6,-0.7,1.8,2470.252,13.33,0.016,147.3
2020-09-06T03:19:03,42.805,6.029,0.017,-0.023,0.023,101.0,105.0,101.0,13.4,1505.3,324.5,-0.7,1.8,2470.299,13.33,0.028,143.5
2020-09-06T03:22:03,42.805,6.029,0.03,-0.031,0.059,100.0,107.0,100.0,13.4,1505.3,324.7,-0.7,1.8,2470.316,13.33,0.043,135.9
2020-09-06T03:25:03,42.805,6.029,0.041,-0.011,0.088,101.0,103.0,100.0,13.4,1505.4,324.7,-0.7,1.8,2470.3,13.34,0.042,105.0
2020-09-06T03:28:03,42.805,6.029,0.024,-0.03,0.01,102.0,104.0,100.0,13.4,1505.4,327.1,-0.7,1.8,2470.314,13.34,0.038,141.3
2020-09-06T03:31:03,42.805,6.029,0.007,-0.016,0.047,101.0,105.0,101.0,13.4,1505.4,324.1,-0.7,1.9,2470.27,13.34,0.017,156.4
2020-09-06T03:34:03,42.805,6.029,0.053,-0.005,0.051,106.0,104.0,100.0,13.3,1505.4,324.6,-0.7,1.9,2470.292,13.34,0.053,95.4
2020-09-06T03:40:02,42.805,6.029,0.015,-0.012,0.024,101.0,105.0,100.0,13.4,1505.3,327.8,-0.8,1.8,2470.314,13.32,0.019,128.7
2020-09-06T03:43:03,42.805,6.029,0.083,-0.032,0.035,99.0,105.0,100.0,13.4,1505.3,325.3,-0.7,1.8,2470.329,13.33,0.088,111.1
2020-09-06T03:46:05,42.805,6.029,0.036,-0.011,0.038,102.0,105.0,99.0,13.4,1505.3,326.3,-0.7,1.9,2470.297,13.33,0.037,107.0
2020-09-06T03:49:03,42.805,6.029,0.029,-0.001,0.094,99.0,104.0,100.0,13.4,1505.3,324.6,-0.8,1.8,2470.276,13.33,0.029,92.0
2020-09-06T03:52:03,42.805,6.029,0.057,-0.02,0.088,100.0,104.0,101.0,13.3,1505.4,327.8,-0.7,1.8,2470.278,13.34,0.06,109.3
2020-09-06T03:55:03,42.805,6.029,0.059,-0.005,0.084,99.0,105.0,102.0,13.4,1505.4,323.5,-0.7,1.8,2470.308,13.34,0.059,94.8
2020-09-06T03:58:03,42.805,6.029,0.057,-0.011,0.086,102.0,106.0,99.0,13.3,1505.4,324.6,-0.7,1.8,2470.286,13.34,0.058,100.9
2020-09-06T04:04:03,42.805,6.029,0.045,0.0,0.045,100.0,106.0,99.0,13.4,1505.3,326.4,-0.7,1.8,2470.329,13.32,0.045,90.0
2020-09-06T04:07:03,42.805,6.029,0.054,-0.017,0.054,100.0,103.0,101.0,13.4,1505.3,325.9,-0.7,1.8,2470.307,13.33,0.056,107.5
2020-09-06T04:10:03,42.805,6.029,0.032,-0.015,0.027,100.0,103.0,100.0,13.4,1505.3,323.2,-0.7,1.8,2470.292,13.33,0.035,115.1
2020-09-06T04:13:03,42.805,6.029,0.051,-0.015,0.069,99.0,104.0,100.0,13.4,1505.4,323.2,-0.7,1.8,2470.294,13.34,0.053,106.4
2020-09-06T04:16:03,42.805,6.029,0.048,-0.027,0.06,100.0,104.0,99.0,13.3,1505.4,323.1,-0.7,1.8,2470.296,13.34,0.055,119.4
2020-09-06T04:19:03,42.805,6.029,0.019,-0.01,0.035,100.0,105.0,100.0,13.3,1505.4,326.8,-0.7,1.8,2470.278,13.34,0.021,117.8
2020-09-06T04:22:03,42.805,6.029,0.029,-0.038,0.034,100.0,106.0,100.0,13.4,1505.4,326.9,-0.8,1.8,2470.289,13.35,0.047,142.7
2020-09-06T04:25:03,42.805,6.029,0.028,-0.014,0.064,101.0,103.0,100.0,13.4,1505.4,327.0,-0.7,1.8,2470.285,13.35,0.031,116.6
2020-09-06T04:28:03,42.805,6.029,0.006,-0.036,0.0,100.0,107.0,99.0,13.4,1505.4,326.0,-0.7,1.8,2470.336,13.35,0.036,170.5
2020-09-06T04:31:03,42.805,6.029,0.046,-0.028,0.064,104.0,105.0,100.0,13.3,1505.4,326.2,-0.7,1.9,2470.295,13.35,0.053,121.3
2020-09-06T04:34:03,42.805,6.029,0.041,-0.013,0.036,100.0,106.0,100.0,13.4,1505.4,325.4,-0.7,1.8,2470.312,13.35,0.043,107.6
2020-09-06T04:37:03,42.805,6.029,-0.014,-0.027,0.026,101.0,106.0,99.0,13.3,1505.4,326.1,-0.7,1.8,2470.303,13.35,0.03,207.4
2020-09-06T04:40:03,42.805,6.029,-0.007,-0.013,0.031,99.0,105.0,100.0,13.3,1505.4,324.5,-0.7,1.8,2470.3,13.35,0.014,208.3
2020-09-06T04:43:03,42.805,6.029,-0.009,-0.035,0.007,100.0,104.0,99.0,13.3,1505.4,326.5,-0.7,1.8,2470.296,13.35,0.036,194.4
2020-09-06T04:46:03,42.805,6.029,-0.037,-0.019,-0.015,99.0,105.0,100.0,13.4,1505.4,327.2,-0.7,1.9,2470.331,13.35,0.041,242.8
2020-09-06T04:49:02,42.805,6.029,-0.015,-0.007,0.003,101.0,105.0,99.0,13.3,1505.4,325.9,-0.6,1.8,2470.275,13.35,0.016,245.0
2020-09-06T04:52:03,42.805,6.029,0.003,-0.018,0.016,102.0,104.0,100.0,13.4,1505.4,325.5,-0.7,1.8,2470.27,13.35,0.018,170.5
2020-09-06T04:55:03,42.805,6.029,-0.023,-0.031,-0.008,103.0,104.0,104.0,13.3,1505.4,326.9,-0.7,1.8,2470.325,13.35,0.038,216.6
2020-09-06T04:58:03,42.805,6.029,-0.016,-0.008,0.005,105.0,109.0,98.0,13.4,1505.4,322.8,-0.7,1.8,2470.283,13.35,0.017,243.4
2020-09-06T05:04:03,42.805,6.029,-0.016,-0.029,-0.022,100.0,106.0,99.0,13.4,1505.3,323.8,-0.7,1.8,2470.35,13.33,0.033,208.9
2020-09-06T05:07:02,42.805,6.029,-0.026,-0.007,-0.03,102.0,105.0,103.0,13.4,1505.4,326.6,-0.7,1.8,2470.328,13.34,0.026,254.9
2020-09-06T05:10:03,42.805,6.029,-0.009,0.004,0.063,101.0,105.0,100.0,13.4,1505.4,325.3,-0.7,1.8,2470.365,13.34,0.009,294.0
2020-09-06T05:13:02,42.805,6.029,-0.026,-0.016,-0.011,100.0,105.0,101.0,13.4,1505.4,325.9,-0.6,1.8,2470.324,13.35,0.03,238.4
2020-09-06T05:16:03,42.805,6.029,-0.009,-0.038,-0.025,103.0,104.0,102.0,13.4,1505.4,325.9,-0.7,1.8,2470.321,13.35,0.039,193.3
2020-09-06T05:19:03,42.805,6.029,-0.011,-0.019,0.006,103.0,107.0,100.0,13.4,1505.4,326.3,-0.7,1.8,2470.317,13.35,0.021,210.1
2020-09-06T05:22:03,42.805,6.029,-0.015,-0.037,-0.015,103.0,105.0,99.0,13.4,1505.4,326.3,-0.7,1.8,2470.326,13.35,0.039,202.1
2020-09-06T05:25:03,42.805,6.029,0.001,-0.029,-0.01,101.0,107.0,98.0,13.4,1505.4,326.5,-0.7,1.8,2470.338,13.35,0.029,178.0
2020-09-06T05:28:03,42.805,6.029,-0.028,-0.021,-0.006,99.0,109.0,100.0,13.3,1505.4,325.2,-0.7,1.9,2470.31,13.35,0.035,233.1
2020-09-06T05:31:03,42.805,6.029,-0.034,-0.02,-0.021,103.0,105.0,102.0,13.4,1505.4,325.0,-0.7,1.8,2470.244,13.35,0.039,239.5
2020-09-06T05:34:03,42.805,6.029,-0.031,-0.037,-0.02,102.0,106.0,100.0,13.4,1505.4,327.6,-0.7,1.8,2470.299,13.35,0.048,220.0
2020-09-06T05:37:03,42.805,6.029,-0.003,-0.007,0.019,101.0,106.0,101.0,13.4,1505.4,327.4,-0.7,1.8,2470.297,13.35,0.007,203.2
2020-09-06T05:40:03,42.805,6.029,0.004,-0.012,0.036,100.0,111.0,100.0,13.4,1505.4,327.8,-0.7,1.8,2470.322,13.35,0.012,161.6
2020-09-06T05:43:03,42.805,6.029,-0.005,-0.044,-0.014,100.0,104.0,99.0,13.3,1505.4,327.8,-0.7,1.8,2470.343,13.35,0.044,186.5
2020-09-06T05:46:03,42.805,6.029,0.035,-0.023,0.053,101.0,105.0,102.0,13.3,1505.4,328.2,-0.7,1.9,2470.299,13.34,0.041,123.3
2020-09-06T05:49:03,42.805,6.029,-0.011,-0.015,0.028,103.0,105.0,101.0,13.4,1505.4,327.9,-0.7,1.8,2470.271,13.34,0.018,216.3
2020-09-06T05:52:03,42.805,6.029,-0.006,-0.017,-0.009,103.0,107.0,100.0,13.4,1505.4,328.1,-0.7,1.8,2470.309,13.34,0.018,199.4
2020-09-06T05:55:03,42.805,6.029,-0.026,-0.015,-0.017,101.0,106.0,101.0,13.4,1505.4,327.3,-0.7,1.8,2470.302,13.34,0.03,240.0
2020-09-06T05:58:03,42.805,6.029,0.046,0.0,0.063,102.0,104.0,102.0,13.4,1505.3,324.5,-0.7,1.8,2470.322,13.33,0.046,90.0
2020-09-06T06:04:03,42.805,6.029,-0.034,-0.029,-0.025,103.0,109.0,100.0,13.4,1505.3,326.2,-0.7,1.8,2470.386,13.31,0.044,229.5
2020-09-06T06:07:03,42.805,6.029,-0.011,-0.014,-0.003,105.0,108.0,100.0,13.4,1505.3,326.7,-0.7,1.8,2470.317,13.32,0.017,218.2
2020-09-06T06:10:03,42.805,6.029,-0.041,-0.006,-0.018,105.0,109.0,100.0,13.4,1505.3,327.1,-0.7,1.8,2470.316,13.33,0.041,261.7
2020-09-06T06:13:03,42.805,6.029,0.021,-0.017,0.056,105.0,108.0,101.0,13.3,1505.3,324.7,-0.7,1.8,2470.368,13.33,0.027,129.0
2020-09-06T06:16:03,42.805,6.029,0.04,-0.022,0.055,104.0,107.0,101.0,13.3,1505.3,328.5,-0.7,1.8,2470.378,13.33,0.045,118.8
2020-09-06T06:19:03,42.805,6.029,0.018,0.001,0.028,105.0,108.0,102.0,13.4,1505.4,323.6,-0.7,1.8,2470.409,13.34,0.018,86.8
2020-09-06T06:22:03,42.805,6.029,-0.008,-0.009,-0.001,103.0,108.0,102.0,13.3,1505.4,324.0,-0.7,1.8,2470.35,13.34,0.012,221.6
2020-09-06T06:25:03,42.805,6.029,-0.012,-0.02,0.015,103.0,105.0,101.0,13.4,1505.4,325.3,-0.7,1.8,2470.359,13.34,0.023,211.0
2020-09-06T06:28:03,42.805,6.029,-0.06,-0.017,-0.053,103.0,104.0,102.0,13.4,1505.4,324.0,-0.7,1.8,2470.377,13.34,0.062,254.2
2020-09-06T06:31:03,42.805,6.029,-0.002,-0.009,0.006,103.0,105.0,101.0,13.4,1505.4,324.9,-0.7,1.9,2470.361,13.34,0.009,192.5
2020-09-06T06:34:03,42.805,6.029,-0.008,-0.017,0.013,101.0,104.0,101.0,13.3,1505.4,325.3,-0.7,1.8,2470.343,13.34,0.018,205.2
2020-09-06T06:37:03,42.805,6.029,-0.025,-0.018,0.004,102.0,105.0,101.0,13.4,1505.3,327.1,-0.7,1.9,2470.384,13.33,0.03,234.2
2020-09-06T06:40:03,42.805,6.029,-0.02,-0.016,-0.011,104.0,105.0,101.0,13.3,1505.3,323.0,-0.7,1.8,2470.375,13.33,0.025,231.3
2020-09-06T06:43:03,42.805,6.029,-0.012,-0.019,-0.019,102.0,106.0,102.0,13.4,1505.3,326.3,-0.7,1.8,2470.366,13.33,0.022,212.3
2020-09-06T06:46:03,42.805,6.029,-0.011,-0.017,-0.021,103.0,105.0,101.0,13.3,1505.4,324.6,-0.7,1.9,2470.378,13.34,0.02,212.9
2020-09-06T06:52:03,42.805,6.029,-0.034,-0.025,-0.034,103.0,105.0,102.0,13.4,1505.3,324.5,-0.7,1.8,2470.39,13.32,0.042,233.7
2020-09-06T06:55:03,42.805,6.029,0.017,-0.001,0.009,104.0,106.0,100.0,13.4,1505.3,324.7,-0.7,1.8,2470.392,13.32,0.017,93.4
2020-09-06T06:58:03,42.805,6.029,0.012,-0.02,0.0,102.0,106.0,103.0,13.4,1505.3,325.4,-0.7,1.8,2470.419,13.33,0.023,149.0
2020-09-06T07:04:03,42.805,6.029,0.01,0.001,0.022,104.0,105.0,100.0,13.4,1505.3,323.9,-0.7,1.8,2470.381,13.31,0.01,84.3
2020-09-06T07:07:03,42.805,6.029,0.018,-0.009,0.013,102.0,105.0,100.0,13.4,1505.3,326.0,-0.7,1.8,2470.416,13.32,0.02,116.6
2020-09-06T07:10:04,42.805,6.029,0.008,-0.015,0.03,103.0,107.0,101.0,13.3,1505.3,323.2,-0.7,1.8,2470.426,13.33,0.017,151.9
2020-09-06T07:13:03,42.805,6.029,0.027,0.003,0.068,102.0,106.0,102.0,13.4,1505.3,327.3,-0.7,1.8,2470.421,13.33,0.027,83.7
2020-09-06T07:16:03,42.805,6.029,0.005,-0.01,0.02,103.0,107.0,101.0,13.4,1505.3,325.5,-0.7,1.8,2470.416,13.33,0.011,153.4
2020-09-06T07:19:03,42.805,6.029,0.019,0.015,0.002,105.0,108.0,100.0,13.4,1505.4,327.4,-0.7,1.8,2470.406,13.34,0.024,51.7
2020-09-06T07:22:03,42.805,6.029,-0.004,-0.009,0.027,105.0,106.0,102.0,13.4,1505.4,326.3,-0.7,1.9,2470.382,13.34,0.009,204.0
2020-09-06T07:25:03,42.805,6.029,-0.005,0.001,0.02,105.0,111.0,101.0,13.4,1505.4,326.3,-0.7,1.8,2470.403,13.34,0.005,281.3
2020-09-06T07:28:03,42.805,6.029,0.038,-0.021,0.023,106.0,106.0,100.0,13.3,1505.4,328.4,-0.7,1.8,2470.428,13.34,0.043,118.9
2020-09-06T07:31:03,42.805,6.029,0.014,-0.007,0.046,106.0,107.0,101.0,13.3,1505.4,324.5,-0.7,1.8,2470.379,13.34,0.015,116.6
2020-09-06T07:34:03,42.805,6.029,-0.007,-0.017,0.018,102.0,109.0,101.0,13.4,1505.4,324.5,-0.7,1.8,2470.416,13.34,0.018,202.4
2020-09-06T07:37:03,42.805,6.029,-0.027,-0.009,-0.023,104.0,107.0,100.0,13.3,1505.4,326.4,-0.7,1.8,2470.423,13.34,0.028,251.6
2020-09-06T07:40:03,42.805,6.029,-0.047,0.011,-0.058,103.0,107.0,101.0,13.4,1505.4,325.2,-0.7,1.8,2470.404,13.34,0.048,283.2
2020-09-06T07:43:03,42.805,6.029,-0.051,-0.029,-0.029,102.0,107.0,100.0,13.3,1505.4,322.7,-0.7,1.8,2470.394,13.34,0.058,240.4
2020-09-06T07:46:03,42.805,6.029,-0.005,-0.012,-0.011,102.0,107.0,102.0,13.3,1505.4,327.9,-0.7,1.8,2470.367,13.35,0.013,202.6
2020-09-06T07:49:03,42.805,6.029,-0.033,-0.014,-0.001,102.0,107.0,100.0,13.4,1505.4,326.2,-0.7,1.8,2470.396,13.35,0.035,247.0
2020-09-06T07:52:03,42.805,6.029,-0.017,-0.015,0.014,102.0,109.0,100.0,13.4,1505.4,327.2,-0.7,1.9,2470.458,13.35,0.022,228.6
2020-09-06T07:55:03,42.805,6.029,-0.013,-0.016,0.013,107.0,110.0,105.0,13.4,1505.4,325.9,-0.7,1.9,2470.413,13.35,0.02,219.1
2020-09-06T07:58:03,42.805,6.029,-0.065,-0.019,-0.038,103.0,109.0,102.0,13.4,1505.4,325.4,-0.7,1.8,2470.399,13.35,0.067,253.7
2020-09-06T08:04:03,42.805,6.029,-0.062,-0.012,-0.063,103.0,107.0,103.0,13.4,1505.3,327.9,-0.7,1.8,2470.455,13.33,0.063,259.0
2020-09-06T08:07:03,42.805,6.029,-0.06,-0.019,-0.039,102.0,107.0,101.0,13.4,1505.3,326.7,-0.7,1.9,2470.437,13.33,0.062,252.4
2020-09-06T08:10:03,42.805,6.029,-0.043,-0.019,-0.01,104.0,107.0,100.0,13.4,1505.4,325.2,-0.7,1.9,2470.467,13.34,0.047,246.2
2020-09-06T08:13:03,42.805,6.029,-0.077,-0.017,-0.061,102.0,107.0,102.0,13.3,1505.4,327.4,-0.7,1.8,2470.441,13.34,0.078,257.6
2020-09-06T08:16:03,42.805,6.029,-0.058,-0.025,-0.065,103.0,106.0,99.0,13.3,1505.4,326.0,-0.7,1.8,2470.429,13.34,0.063,246.7
2020-09-06T08:19:03,42.805,6.029,-0.094,-0.02,-0.096,103.0,107.0,100.0,13.4,1505.4,326.2,-0.7,1.8,2470.454,13.34,0.096,258.0
2020-09-06T08:22:03,42.805,6.029,-0.05,-0.013,-0.046,102.0,106.0,103.0,13.4,1505.4,328.4,-0.7,1.8,2470.433,13.34,0.051,255.4
2020-09-06T08:25:03,42.805,6.029,-0.019,-0.018,-0.043,102.0,107.0,102.0,13.4,1505.4,324.4,-0.7,1.8,2470.432,13.34,0.026,226.5
2020-09-06T08:28:03,42.805,6.029,-0.051,-0.001,-0.044,107.0,107.0,101.0,13.4,1505.4,326.3,-0.7,1.8,2470.447,13.35,0.051,268.9
2020-09-06T08:31:03,42.805,6.029,-0.05,-0.017,-0.06,101.0,108.0,99.0,13.3,1505.4,327.6,-0.7,1.8,2470.394,13.35,0.052,251.2
2020-09-06T08:34:03,42.805,6.029,-0.087,-0.015,-0.06,102.0,106.0,101.0,13.3,1505.4,326.6,-0.7,1.9,2470.427,13.35,0.088,260.2
2020-09-06T08:37:03,42.805,6.029,-0.065,-0.01,-0.013,109.0,108.0,99.0,13.4,1505.4,327.2,-0.7,1.8,2470.398,13.35,0.065,261.3
2020-09-06T08:40:03,42.805,6.029,-0.011,-0.004,-0.007,105.0,107.0,102.0,13.4,1505.4,325.0,-0.7,1.8,2470.394,13.35,0.011,250.0
2020-09-06T08:43:03,42.805,6.029,-0.017,-0.019,-0.035,102.0,107.0,102.0,13.4,1505.4,324.5,-0.7,1.8,2470.451,13.35,0.025,221.8
2020-09-06T08:46:03,42.805,6.029,-0.049,-0.02,-0.042,102.0,107.0,101.0,13.3,1505.4,323.8,-0.7,1.8,2470.37,13.35,0.052,247.8
2020-09-06T08:49:02,42.805,6.029,-0.003,0.001,0.004,102.0,108.0,100.0,13.3,1505.4,324.6,-0.7,1.9,2470.408,13.35,0.003,288.4
2020-09-06T08:52:03,42.805,6.029,-0.017,-0.019,-0.005,104.0,108.0,102.0,13.4,1505.4,325.0,-0.7,1.8,2470.45,13.35,0.025,221.8
2020-09-06T08:55:03,42.805,6.029,0.009,-0.029,-0.028,102.0,108.0,100.0,13.3,1505.4,325.8,-0.7,1.8,2470.441,13.35,0.03,162.8
2020-09-06T08:58:02,42.805,6.029,0.027,-0.005,0.053,101.0,109.0,100.0,13.4,1505.4,324.7,-0.7,1.8,2470.399,13.35,0.027,100.5
2020-09-06T09:04:03,42.805,6.029,0.015,0.0,0.012,102.0,107.0,100.0,13.4,1505.3,326.7,-0.7,1.8,2470.448,13.33,0.015,90.0
2020-09-06T09:07:03,42.805,6.029,0.024,-0.004,0.062,104.0,109.0,101.0,13.4,1505.4,322.5,-0.7,1.8,2470.444,13.34,0.024,99.5
2020-09-06T09:10:03,42.805,6.029,0.044,-0.013,0.054,103.0,107.0,99.0,13.3,1505.4,328.0,-0.7,1.9,2470.437,13.34,0.045,106.5
2020-09-06T09:13:03,42.805,6.029,0.038,-0.017,0.035,106.0,108.0,99.0,13.4,1505.4,326.0,-0.7,1.8,2470.371,13.34,0.041,114.1
2020-09-06T09:16:03,42.805,6.029,0.011,-0.012,0.009,105.0,107.0,98.0,13.3,1505.4,326.6,-0.7,1.8,2470.439,13.35,0.016,137.5
2020-09-06T09:19:03,42.805,6.029,0.033,-0.013,0.034,101.0,107.0,100.0,13.4,1505.4,326.8,-0.7,1.8,2470.428,13.35,0.035,111.5
2020-09-06T09:22:02,42.805,6.029,0.021,-0.004,0.015,103.0,107.0,103.0,13.3,1505.4,325.8,-0.7,1.8,2470.42,13.35,0.021,100.8
2020-09-06T09:25:04,42.805,6.029,-0.006,-0.006,-0.028,102.0,107.0,99.0,13.4,1505.4,324.2,-0.8,1.8,2470.43,13.35,0.008,225.0
2020-09-06T09:28:03,42.805,6.029,0.018,-0.007,0.037,102.0,107.0,99.0,13.4,1505.4,323.2,-0.7,1.8,2470.412,13.35,0.019,111.2
2020-09-06T09:31:03,42.805,6.029,-0.029,-0.004,0.002,101.0,108.0,99.0,13.3,1505.4,327.3,-0.7,1.9,2470.416,13.35,0.029,262.2
2020-09-06T09:34:03,42.805,6.029,-0.012,0.008,0.0,101.0,107.0,101.0,13.4,1505.4,327.2,-0.7,1.8,2470.388,13.35,0.014,303.7
2020-09-06T09:37:03,42.805,6.029,-0.011,0.006,0.017,104.0,107.0,100.0,13.4,1505.4,326.4,-0.7,1.8,2470.42,13.35,0.012,298.6
2020-09-06T09:40:03,42.805,6.029,-0.035,-0.001,-0.02,101.0,107.0,100.0,13.4,1505.4,325.7,-0.7,1.8,2470.39,13.35,0.035,268.4
2020-09-06T09:43:03,42.805,6.029,-0.031,0.017,-0.021,100.0,107.0,100.0,13.4,1505.4,327.8,-0.7,1.8,2470.423,13.35,0.035,298.7
2020-09-06T09:46:05,42.805,6.029,-0.014,0.0,-0.029,100.0,108.0,99.0,13.3,1505.4,326.3,-0.7,1.8,2470.409,13.35,0.014,270.0
2020-09-06T09:49:03,42.805,6.029,-0.039,-0.004,-0.042,99.0,107.0,99.0,13.3,1505.4,324.3,-0.7,1.8,2470.43,13.35,0.039,264.1
2020-09-06T09:52:03,42.805,6.029,-0.036,0.005,-0.015,105.0,106.0,100.0,13.4,1505.4,326.6,-0.7,1.8,2470.413,13.35,0.036,277.9
2020-09-06T09:55:03,42.805,6.029,-0.014,0.001,-0.008,108.0,107.0,99.0,13.4,1505.4,323.0,-0.7,1.8,2470.437,13.35,0.014,274.1
2020-09-06T09:58:03,42.805,6.029,0.008,-0.004,-0.003,100.0,107.0,99.0,13.3,1505.4,327.8,-0.7,1.9,2470.412,13.35,0.008,116.6
2020-09-06T10:04:03,42.805,6.029,-0.045,0.007,-0.057,102.0,106.0,99.0,13.3,1505.3,326.8,-0.8,1.8,2470.404,13.33,0.045,278.8